User: anonymous   Login
Location: Newark
(7.0858°N, 171.3717°E)
Time: 18:51:14
(UTC+00:00)
Language:

A-11 Canister half - Orbit

View from above orbital plane
View from above orbital plane
View from above satellite
View from above satellite

Ground track
Ground track

The orbit data is extracted from the following two-line orbital elements,

1 00053U 60009E   21332.53868418 -.00000132  00000-0 -47095-3 0  9993
2 00053  47.2779  67.3532 0100419 204.2508 155.3534 12.17266347733017
Epoch (UTC): 28 November 2021 12:55:42
Eccentricity: 0.0100419
inclination: 47.2779°
perigee height: 1524 km
apogee height: 1684 km
right ascension of ascending node: 67.3532°
argument of perigee: 204.2508°
revolutions per day: 12.17266347
mean anomaly at epoch: 155.3534°
orbit number at epoch: 73301

The dashed part of the orbit path shows where the satellite is in the earth's shadow,  

DLR